ONEWEB-0691, 61599

Orbit data source: Space-Track

ONEWEB-0691, 61599 is a payload satellite owned by Eut. One Web (UK) in LEO that was launched on Sun, 20 Oct 2024 UTC via an FALCON 9 launch vehicle from the Air Force Western Test Range (AFWTR). Payload-class satellites include a variety of spacecraft equipped with specific instruments for various scientific and technological missions. These include communications satellites like Starlink; space stations such as the ISS; scientific satellites like the Hubble; Earth observation satellites from companies like Planet Labs, Umbra, and HawkEye 360; GPS; miniature CubeSats for education and research; and military/defense satellites.

Loading next visibility...
Identifier
61599, 2024-188F
Orbit
LEO
Country
Flag of UKUK
Related business
Manufacturer
One Web
Mission
Operational Commercial Communications
Bus & Motor
ARROW, Unknown motor
Mass
148 kg wet, ~140 kg dry
Launch date (UTC)
2024-10-20 (11 months ago)
Launch vehicle
FALCON 9
Launch site
Air Force Western Test Range (AFWTR)
Object type
Payload
Rocket body
Debris
Shape & HBR
Trap Box + 2 Pan, 2.5 m
Radar Cross Section
2.032 m², Medium (>0.1 m² and < 1m²)

Expand to show TLE details & history
Last TLE update: 14 hours ago

TLE from 14 hours ago
0 ONEWEB-0691
1 61599U 24188F   25258.22228630 -.00000406  00000-0 -11804-2 0  9998
2 61599  87.8712  75.7702 0001983  81.2725 278.8627 13.11419422 48447
Epoch: 2025-09-15T05:20Z
TLE epoch observation values (Epoch: 2025-09-15T05:20:05.536Z)
Latitude
-0.00006°
Longitude
1.31709°
Altitude
1,220.33 km
Speed
7.244 km/s
True Right ascension
05h 03m 04s
True Declination
0° 00' 00"
Sunlit
Object was in daylight at epoch
Visualization orbit readout
Latitude
Unknown
Longitude
Unknown
Altitude
Unknown
Speed
Unknown
Apparent Right ascension
Unknown
Apparent Declination
Unknown
Sunlit
N/A
Visualization observer readout
Local Sidereal Time
11:39:48
Azimuth
Unknown
Elevation
Unknown
Doppler factor
Unknown
Orbital elements
Apogee altitude
1,216.297 km
Perigee altitude
1,213.286 km
Semi-major axis
7,592.929 km
Eccentricity
0.0002
Inclination
87.8712°
RAAN
75.7702°
Arg. of periapsis
81.2725°
True anomaly
278.84025°
Mean anomaly
278.8627°
Eccentric anomaly
278.85147°
Mean motion
3.28042 °/min
Orbital period
109.74 mins
BSTAR
-0.0011804
Loading maneuver chart data...
Computing Atmospheric mass density...
Loading historical data...
Loading historical data...
Loading historical data...
Loading historical data...
Loading historical data...
Loading historical data...
Loading historical data...

Documentation

Showing up to 5 results
|